Time,TemperatureF,DewpointF,PressureIn,WindDirection,WindDirectionDegrees,WindSpeedMPH,WindSpeedGustMPH,Humidity,HourlyPrecipIn,Conditions,Clouds,dailyrainin,SoftwareType,DateUTC
2013-02-06 00:06:00,41.5,36.0,30.22,SSW,198,2.0,9.0,81,0.00,,,0.00,weatherlink.com 1.10,2013-02-06 05:06:00,
2013-02-06 00:21:00,41.6,36.0,30.22,SSW,211,0.0,5.0,81,0.00,,,0.00,weatherlink.com 1.10,2013-02-06 05:21:00,
2013-02-06 00:36:00,42.4,37.0,30.22,SSW,201,2.0,6.0,80,0.00,,,0.00,weatherlink.com 1.10,2013-02-06 05:36:00,
2013-02-06 00:51:00,42.3,37.0,30.22,SSW,208,1.0,4.0,81,0.00,,,0.00,weatherlink.com 1.10,2013-02-06 05:51:00,
2013-02-06 01:06:00,43.2,37.0,30.23,WSW,249,2.0,11.0,79,0.00,,,0.00,weatherlink.com 1.10,2013-02-06 06:06:00,
2013-02-06 01:21:00,42.9,37.0,30.23,ESE,113,2.0,4.0,80,0.00,,,0.00,weatherlink.com 1.10,2013-02-06 06:21:00,
2013-02-06 01:36:00,43.0,37.0,30.22,South,183,2.0,5.0,80,0.00,,,0.00,weatherlink.com 1.10,2013-02-06 06:36:00,
2013-02-06 01:51:00,43.1,37.0,30.22,WNW,283,4.0,8.0,80,0.00,,,0.00,weatherlink.com 1.10,2013-02-06 06:51:00,
2013-02-06 02:06:00,42.7,37.0,30.22,NNW,328,2.0,6.0,81,0.00,,,0.00,weatherlink.com 1.10,2013-02-06 07:06:00,
2013-02-06 02:21:00,42.7,37.0,30.22,West,262,1.0,5.0,80,0.00,,,0.00,weatherlink.com 1.10,2013-02-06 07:21:00,
2013-02-06 02:36:00,42.3,36.0,30.22,SW,220,2.0,4.0,79,0.00,,,0.00,weatherlink.com 1.10,2013-02-06 07:36:00,
2013-02-06 02:51:00,41.9,36.0,30.22,West,281,1.0,3.0,79,0.00,,,0.00,weatherlink.com 1.10,2013-02-06 07:51:00,
2013-02-06 03:06:00,41.2,36.0,30.23,ESE,114,1.0,4.0,81,0.00,,,0.00,weatherlink.com 1.10,2013-02-06 08:06:00,
2013-02-06 03:21:00,40.4,35.0,30.23,South,179,2.0,3.0,82,0.00,,,0.00,weatherlink.com 1.10,2013-02-06 08:21:00,
2013-02-06 03:36:00,40.1,35.0,30.23,SSW,201,1.0,5.0,83,0.00,,,0.00,weatherlink.com 1.10,2013-02-06 08:36:00,
2013-02-06 03:51:00,40.4,34.0,30.23,SSW,207,2.0,5.0,78,0.00,,,0.00,weatherlink.com 1.10,2013-02-06 08:51:00,
2013-02-06 04:06:00,40.8,33.0,30.23,SSW,204,1.0,4.0,73,0.00,,,0.00,weatherlink.com 1.10,2013-02-06 09:06:00,
2013-02-06 04:21:00,40.3,32.0,30.23,East,97,3.0,4.0,72,0.00,,,0.00,weatherlink.com 1.10,2013-02-06 09:21:00,
2013-02-06 04:36:00,39.5,32.0,30.24,SSW,203,1.0,3.0,74,0.00,,,0.00,weatherlink.com 1.10,2013-02-06 09:36:00,
2013-02-06 04:51:00,38.6,32.0,30.24,SSE,167,3.0,3.0,77,0.00,,,0.00,weatherlink.com 1.10,2013-02-06 09:51:00,
2013-02-06 05:06:00,38.1,32.0,30.25,South,169,2.0,3.0,78,0.00,,,0.00,weatherlink.com 1.10,2013-02-06 10:06:00,
2013-02-06 05:21:00,37.7,32.0,30.25,SSE,166,2.0,3.0,80,0.00,,,0.00,weatherlink.com 1.10,2013-02-06 10:21:00,
2013-02-06 05:36:00,37.2,32.0,30.26,SSW,199,2.0,3.0,80,0.00,,,0.00,weatherlink.com 1.10,2013-02-06 10:36:00,
2013-02-06 05:51:00,37.5,32.0,30.27,South,169,2.0,2.0,79,0.00,,,0.00,weatherlink.com 1.10,2013-02-06 10:51:00,
2013-02-06 06:21:00,37.1,31.0,30.28,South,188,2.0,3.0,79,0.00,,,0.00,weatherlink.com 1.10,2013-02-06 11:21:00,
2013-02-06 06:36:00,36.9,31.0,30.29,SSW,195,2.0,3.0,78,0.00,,,0.00,weatherlink.com 1.10,2013-02-06 11:36:00,
2013-02-06 06:51:00,36.3,30.0,30.29,South,174,2.0,3.0,78,0.00,,,0.00,weatherlink.com 1.10,2013-02-06 11:51:00,
2013-02-06 07:06:00,36.5,30.0,30.30,SSE,162,2.0,3.0,77,0.00,,,0.00,weatherlink.com 1.10,2013-02-06 12:06:00,
2013-02-06 07:22:00,36.4,30.0,30.30,SSW,198,1.0,3.0,77,0.00,,,0.00,weatherlink.com 1.10,2013-02-06 12:22:00,
2013-02-06 07:37:00,35.2,29.0,30.31,South,169,1.0,2.0,78,0.00,,,0.00,weatherlink.com 1.10,2013-02-06 12:37:00,
2013-02-06 07:52:00,35.0,29.0,30.32,SSE,165,0.0,2.0,79,0.00,,,0.00,weatherlink.com 1.10,2013-02-06 12:52:00,
2013-02-06 08:07:00,34.5,29.0,30.32,SSE,165,0.0,1.0,80,0.00,,,0.00,weatherlink.com 1.10,2013-02-06 13:07:00,
2013-02-06 08:22:00,34.5,30.0,30.33,SSE,163,2.0,3.0,82,0.00,,,0.00,weatherlink.com 1.10,2013-02-06 13:22:00,
2013-02-06 08:37:00,34.9,29.0,30.33,SSE,160,2.0,3.0,80,0.00,,,0.00,weatherlink.com 1.10,2013-02-06 13:37:00,
2013-02-06 08:52:00,35.4,29.0,30.33,SSE,159,0.0,2.0,77,0.00,,,0.00,weatherlink.com 1.10,2013-02-06 13:52:00,
2013-02-06 09:07:00,35.7,30.0,30.34,SSE,160,2.0,3.0,79,0.00,,,0.00,weatherlink.com 1.10,2013-02-06 14:07:00,
2013-02-06 09:22:00,36.8,31.0,30.34,SSE,163,3.0,3.0,78,0.00,,,0.00,weatherlink.com 1.10,2013-02-06 14:22:00,
2013-02-06 09:37:00,38.3,29.0,30.34,South,171,3.0,3.0,68,0.00,,,0.00,weatherlink.com 1.10,2013-02-06 14:37:00,
2013-02-06 09:52:00,39.4,29.0,30.35,SSE,160,2.0,3.0,66,0.00,,,0.00,weatherlink.com 1.10,2013-02-06 14:52:00,
2013-02-06 10:07:00,40.4,29.0,30.35,SSE,159,2.0,2.0,64,0.00,,,0.00,weatherlink.com 1.10,2013-02-06 15:07:00,
2013-02-06 10:22:00,41.0,30.0,30.36,South,173,0.0,2.0,65,0.00,,,0.00,weatherlink.com 1.10,2013-02-06 15:22:00,
2013-02-06 10:37:00,42.6,29.0,30.36,SE,142,1.0,2.0,60,0.00,,,0.00,weatherlink.com 1.10,2013-02-06 15:37:00,
2013-02-06 10:52:00,44.0,31.0,30.36,SE,124,0.0,1.0,60,0.00,,,0.00,weatherlink.com 1.10,2013-02-06 15:52:00,
2013-02-06 11:07:00,45.5,30.0,30.36,East,93,0.0,2.0,54,0.00,,,0.00,weatherlink.com 1.10,2013-02-06 16:07:00,
2013-02-06 11:22:00,46.5,32.0,30.37,NE,43,1.0,3.0,57,0.00,,,0.00,weatherlink.com 1.10,2013-02-06 16:22:00,
2013-02-06 11:37:00,47.6,32.0,30.37,NE,55,0.0,3.0,55,0.00,,,0.00,weatherlink.com 1.10,2013-02-06 16:37:00,
2013-02-06 11:52:00,48.6,31.0,30.36,NNW,343,1.0,4.0,52,0.00,,,0.00,weatherlink.com 1.10,2013-02-06 16:52:00,
2013-02-06 12:07:00,49.3,33.0,30.36,NE,54,1.0,4.0,53,0.00,,,0.00,weatherlink.com 1.10,2013-02-06 17:07:00,
2013-02-06 12:22:00,49.8,28.0,30.35,North,9,3.0,4.0,44,0.00,,,0.00,weatherlink.com 1.10,2013-02-06 17:22:00,
2013-02-06 12:37:00,50.7,30.0,30.35,NW,319,0.0,3.0,45,0.00,,,0.00,weatherlink.com 1.10,2013-02-06 17:37:00,
2013-02-06 12:52:00,51.2,28.0,30.34,East,91,1.0,5.0,41,0.00,,,0.00,weatherlink.com 1.10,2013-02-06 17:52:00,
2013-02-06 13:07:00,53.0,29.0,30.34,NNE,26,0.0,3.0,40,0.00,,,0.00,weatherlink.com 1.10,2013-02-06 18:07:00,
2013-02-06 13:23:00,52.6,26.0,30.33,NNE,25,0.0,7.0,36,0.00,,,0.00,weatherlink.com 1.10,2013-02-06 18:23:00,
2013-02-06 13:38:00,53.0,27.0,30.32,WNW,302,0.0,7.0,36,0.00,,,0.00,weatherlink.com 1.10,2013-02-06 18:38:00,
2013-02-06 13:53:00,52.9,21.0,30.32,WNW,290,1.0,6.0,29,0.00,,,0.00,weatherlink.com 1.10,2013-02-06 18:53:00,
2013-02-06 14:08:00,52.8,26.0,30.32,WNW,294,3.0,4.0,36,0.00,,,0.00,weatherlink.com 1.10,2013-02-06 19:08:00,
2013-02-06 14:23:00,52.7,24.0,30.31,NW,305,0.0,2.0,33,0.00,,,0.00,weatherlink.com 1.10,2013-02-06 19:23:00,
2013-02-06 14:38:00,52.2,22.0,30.31,SSW,212,0.0,5.0,31,0.00,,,0.00,weatherlink.com 1.10,2013-02-06 19:38:00,
2013-02-06 14:53:00,51.4,24.0,30.31,WSW,252,1.0,5.0,35,0.00,,,0.00,weatherlink.com 1.10,2013-02-06 19:53:00,
2013-02-06 15:08:00,51.2,20.0,30.31,East,81,3.0,3.0,29,0.00,,,0.00,weatherlink.com 1.10,2013-02-06 20:08:00,
2013-02-06 15:38:00,51.2,21.0,30.30,SW,232,0.0,2.0,30,0.00,,,0.00,weatherlink.com 1.10,2013-02-06 20:38:00,
2013-02-06 15:53:00,51.4,24.0,30.30,WNW,294,1.0,3.0,35,0.00,,,0.00,weatherlink.com 1.10,2013-02-06 20:53:00,
2013-02-06 16:08:00,50.7,24.0,30.31,SSE,166,0.0,1.0,36,0.00,,,0.00,weatherlink.com 1.10,2013-02-06 21:08:00,
2013-02-06 16:38:00,50.0,23.0,30.31,South,191,1.0,3.0,35,0.00,,,0.00,weatherlink.com 1.10,2013-02-06 21:38:00,
2013-02-06 16:53:00,49.8,22.0,30.32,South,169,0.0,4.0,34,0.00,,,0.00,weatherlink.com 1.10,2013-02-06 21:53:00,
2013-02-06 17:08:00,49.3,23.0,30.31,SSE,165,2.0,3.0,36,0.00,,,0.00,weatherlink.com 1.10,2013-02-06 22:08:00,
2013-02-06 17:23:00,48.7,22.0,30.31,South,172,2.0,3.0,35,0.00,,,0.00,weatherlink.com 1.10,2013-02-06 22:23:00,
2013-02-06 17:38:00,48.3,22.0,30.31,South,172,3.0,3.0,35,0.00,,,0.00,weatherlink.com 1.10,2013-02-06 22:38:00,
2013-02-06 17:53:00,47.1,24.0,30.32,South,169,3.0,4.0,40,0.00,,,0.00,weatherlink.com 1.10,2013-02-06 22:53:00,
2013-02-06 18:08:00,46.5,23.0,30.33,South,171,3.0,4.0,39,0.00,,,0.00,weatherlink.com 1.10,2013-02-06 23:08:00,
2013-02-06 18:23:00,46.2,22.0,30.33,SSE,165,3.0,4.0,38,0.00,,,0.00,weatherlink.com 1.10,2013-02-06 23:23:00,
2013-02-06 18:38:00,45.8,24.0,30.32,SSE,167,4.0,4.0,43,0.00,,,0.00,weatherlink.com 1.10,2013-02-06 23:38:00,
2013-02-06 18:53:00,45.1,24.0,30.32,South,173,4.0,4.0,44,0.00,,,0.00,weatherlink.com 1.10,2013-02-06 23:53:00,
2013-02-06 19:08:00,45.3,24.0,30.32,South,173,3.0,4.0,43,0.00,,,0.00,weatherlink.com 1.10,2013-02-07 00:08:00,
2013-02-06 19:23:00,45.0,24.0,30.32,South,175,3.0,4.0,43,0.00,,,0.00,weatherlink.com 1.10,2013-02-07 00:23:00,
2013-02-06 19:38:00,45.0,24.0,30.33,South,169,3.0,4.0,44,0.00,,,0.00,weatherlink.com 1.10,2013-02-07 00:38:00,
2013-02-06 19:53:00,44.5,24.0,30.32,SSE,163,4.0,4.0,45,0.00,,,0.00,weatherlink.com 1.10,2013-02-07 00:53:00,
2013-02-06 20:08:00,44.5,24.0,30.33,SSE,167,3.0,4.0,45,0.00,,,0.00,weatherlink.com 1.10,2013-02-07 01:08:00,
2013-02-06 20:23:00,44.1,24.0,30.33,SSE,165,3.0,4.0,45,0.00,,,0.00,weatherlink.com 1.10,2013-02-07 01:23:00,
2013-02-06 20:53:00,43.9,21.0,30.35,SSW,210,1.0,2.0,41,0.00,,,0.00,weatherlink.com 1.10,2013-02-07 01:53:00,
2013-02-06 21:08:00,43.7,24.0,30.37,SSE,167,3.0,3.0,46,0.00,,,0.00,weatherlink.com 1.10,2013-02-07 02:08:00,
2013-02-06 21:23:00,44.0,24.0,30.37,South,172,2.0,4.0,45,0.00,,,0.00,weatherlink.com 1.10,2013-02-07 02:23:00,
2013-02-06 21:38:00,43.8,24.0,30.38,South,188,2.0,2.0,46,0.00,,,0.00,weatherlink.com 1.10,2013-02-07 02:38:00,
2013-02-06 21:53:00,43.1,23.0,30.37,SSE,158,0.0,2.0,46,0.00,,,0.00,weatherlink.com 1.10,2013-02-07 02:53:00,
2013-02-06 22:08:00,42.0,22.0,30.37,SSE,158,1.0,2.0,46,0.00,,,0.00,weatherlink.com 1.10,2013-02-07 03:08:00,
2013-02-06 22:23:00,41.6,24.0,30.36,SSE,163,2.0,3.0,49,0.00,,,0.00,weatherlink.com 1.10,2013-02-07 03:23:00,
2013-02-06 22:38:00,42.0,23.0,30.36,SSE,167,2.0,3.0,48,0.00,,,0.00,weatherlink.com 1.10,2013-02-07 03:38:00,
2013-02-06 22:53:00,42.0,25.0,30.36,South,169,1.0,4.0,52,0.00,,,0.00,weatherlink.com 1.10,2013-02-07 03:53:00,
2013-02-06 23:08:00,42.0,25.0,30.36,SSE,166,2.0,4.0,52,0.00,,,0.00,weatherlink.com 1.10,2013-02-07 04:08:00,
2013-02-06 23:23:00,42.3,26.0,30.36,SSE,162,2.0,5.0,52,0.00,,,0.00,weatherlink.com 1.10,2013-02-07 04:23:00,
2013-02-06 23:38:00,42.0,26.0,30.35,SSE,160,0.0,4.0,53,0.00,,,0.00,weatherlink.com 1.10,2013-02-07 04:38:00,
2013-02-06 23:53:00,42.2,25.0,30.35,South,169,3.0,3.0,51,0.00,,,0.00,weatherlink.com 1.10,2013-02-07 04:53:00,